Location: ??????
(30.5519°N, 47.7720°E)
Time: 17:03:53
(UTC+00:00)

FengYun 1-2 T - Pass Details

Date: 24 January 2021
Orbit: 846 x 881 km, 98.7° (Epoch: 01 March)

Event Time Altitude Azimuth Distance (km) Brightness Sun altitude
Rises 14:33:59 0° 164° (SSE) 3,412 7.4 -4.0°
Reaches altitude 10° 14:36:20 10° 163° (SSE) 2,484 6.7 -4.5°
Maximum altitude 14:41:51 83° 77° (ENE) 873 4.3 -5.6°
Drops below altitude 10° 14:47:28 10° 349° (N) 2,520 6.6 -6.8°
Sets 14:49:52 0° 349° (N) 3,465 7.3 -7.2°
